{"data":{"norad_id":46063,"epoch":"2026-09-19T19:31:42.622464Z","epoch_age_seconds":77426,"freshness":"FRESH","line1":"1 46063U 20055AN  26262.81368776  .00000150  00000+0  16584-4 0  9998","line2":"2 46063  53.1580 290.4603 0001205  73.3951 286.7183 15.31706191338815","mean_motion":15.31706191,"eccentricity":0.0001205,"inclination_deg":53.158,"raan_deg":290.4603,"arg_perigee_deg":73.3951,"mean_anomaly_deg":286.7183,"bstar":1.6584e-5,"rev_number":33881,"period_min":94.012807969384,"perigee_km":469.89625278486,"apogee_km":471.54682769306,"semimajor_km":6848.858540239,"source":"CELESTRAK","updated_at":"2026-09-20T09:00:38.463845Z"}}